EW5526 Weather Reports


Display with metric or nautical units.
time (UTC)temp
F
wind
direction
speed
MPH
gust
MPH
rain 1hr
in
rain 24hr
in
rain mn
in
humidity
%
barometer
mb
20260906190031 81 27 4.0 4.0 0.00 0.00 0.00 64 1022.3
20260906183031 82 316 1.0 2.0 0.00 0.00 0.00 55 1022.0
20260906180030 82 340 3.0 5.0 0.00 0.00 0.00 52 1021.7
20260906173030 81 298 5.0 9.0 0.00 0.00 0.00 63 1021.3
20260906170030 83 327 9.0 10.0 0.00 0.00 0.00 65 1021.3
20260906163030 84 293 8.0 9.0 0.00 0.00 0.00 63 1021.3
20260906160029 85 290 8.0 10.0 0.00 0.00 0.00 62 1021.3
20260906153028 87 321 6.0 10.0 0.00 0.00 0.00 60 1021.4
20260906150029 90 274 3.0 12.0 0.00 0.00 0.00 54 1021.6
20260906143028 91 200 2.0 12.0 0.00 0.00 0.00 51 1021.3
20260906140028 92 326 1.0 4.0 0.00 0.00 0.00 50 1021.5
20260906133027 91 199 5.0 8.0 0.00 0.00 0.00 52 1021.4
20260906130027 92 115 3.0 6.0 0.00 0.00 0.00 51 1021.7
20260906123027 92 190 2.0 6.0 0.00 0.00 0.00 48 1021.7
20260906120028 92 263 2.0 6.0 0.00 0.00 0.00 47 1021.7
20260906113026 93 273 2.0 14.0 0.00 0.00 0.00 43 1021.9
20260906110026 94 223 2.0 4.0 0.00 0.00 0.00 35 1022.1
20260906103026 92 237 4.0 4.0 0.00 0.00 0.00 34 1022.2
20260906100026 91 214 0.0 4.0 0.00 0.00 0.00 34 1022.3
20260906090024 89 336 3.0 5.0 0.00 0.00 0.00 37 1022.4
20260906083025 89 5 2.0 7.0 0.00 0.00 0.00 35 1022.3
20260906080024 87 63 0.0 3.0 0.00 0.00 0.00 44 1022.1
20260906073024 85 5 2.0 2.0 0.00 0.00 0.00 42 1021.8
20260906070025 84 335 3.0 3.0 0.00 0.00 0.00 41 1021.6
20260906060022 80 348 2.0 3.0 0.00 0.00 0.00 39 1021.1
20260906053024 78 347 2.0 3.0 0.00 0.00 0.00 41 1021.0
20260906050022 76 355 2.0 3.0 0.00 0.00 0.00 48 1020.8
20260906043021 76 347 2.0 3.0 0.00 0.00 0.00 53 1020.8
20260906033021 77 355 2.0 3.0 0.00 0.00 0.00 55 1020.7
20260906023020 77 355 2.0 2.0 0.00 0.00 0.00 64 1021.0
20260906013019 77 348 2.0 3.0 0.00 0.00 0.00 66 1021.1
20260906003019 77 13 2.0 4.0 0.00 0.00 0.00 68 1021.5
20260906000049 78 12 2.0 5.0 0.00 0.00 0.00 67 1021.5
20260905233018 78 355 2.0 4.0 0.00 0.00 0.00 64 1021.8
20260905230048 78 346 2.0 4.0 0.00 0.00 0.00 64 1021.8
20260905223018 78 5 4.0 7.0 0.00 0.00 0.00 65 1021.8
20260905220047 78 355 2.0 5.0 0.00 0.00 0.00 66 1021.7
20260905210047 78 16 5.0 8.0 0.00 0.00 0.00 70 1021.8
20260905203048 79 310 2.0 8.0 0.00 0.00 0.00 67 1021.8
20260905200046 80 348 3.0 4.0 0.00 0.00 0.00 63 1021.8